Miscellaneous Local Product
Issued by NWS Hastings, NE

Home | Current Version | Previous Version | Graphics & Text | Print | Product List | Glossary On
Versions: 1 2 3 4 5 6 7 8 9 10 11 12 13 14 15 16 17 18 19 20 21 22 23 24 25 26 27 28 29 30 31 32 33 34 35 36 37 38 39 40 41 42 43 44 45 46 47 48 49 50
000
AXUS43 KGID 030702
MISGRI

GID CWA HOURLY WEATHER ROUNDUP
NATIONAL WEATHER SERVICE HASTINGS NE
200 AM CDT SUN MAY 03 2015

NOTE: "FAIR" INDICATES FEW OR NO CLOUDS BELOW 12,000 FEET WITH NO
SIGNIFICANT WEATHER AND/OR OBSTRUCTIONS TO VISIBILITY.

...SOUTH CENTRAL NEBRASKA...

CITY           SKY/WX    TMP DP  RH WIND       PRES   REMARKS
GRAND ISLAND   PTCLDY    68  51  54 S15       29.73R
HASTINGS       PTCLDY    67  51  56 S9        29.74S
KEARNEY        PTCLDY    66  48  52 S15       29.74R
ORD            PTCLDY    58  47  66 CALM      29.70R
YORK           PTCLDY    68  55  64 SE15G21   29.77R
AURORA         PTCLDY    65  53  64 S12       29.74F
LEXINGTON      MOCLDY    60  48  65 W7        29.73F
HOLDREGE       PTCLDY    64  48  55 SW9       29.75R
HEBRON         PTCLDY    66  53  62 S14       29.77S

...NEBRASKA PANHANDLE...

CITY           SKY/WX    TMP DP  RH WIND       PRES   REMARKS
CHADRON        CLOUDY    47  40  76 SW8       29.77R
ALLIANCE       MOCLDY    52  42  69 W6        29.80R
SCOTTSBLUFF    MOCLDY    57  42  57 SW8       29.82S
SIDNEY         MOCLDY    50  44  80 W10       29.87S

...WESTERN AND NORTH CENTRAL NEBRASKA...

CITY           SKY/WX    TMP DP  RH WIND       PRES   REMARKS
VALENTINE      MOCLDY    57  39  51 W6        29.70F
AINSWORTH      MOCLDY    55  47  74 SW5       29.70S
ONEILL         CLEAR     64  50  60 SE10      29.72R
BROKEN BOW     PTCLDY    62  40  44 W9        29.72S
IMPERIAL       MOCLDY    65  39  38 W10       29.81R
NORTH PLATTE   MOCLDY    51  45  79 W5        29.77R
MCCOOK         MOCLDY    59  44  57 NW8       29.76S

...EASTERN NEBRASKA...

CITY           SKY/WX    TMP DP  RH WIND       PRES   REMARKS
NORFOLK        PTCLDY    64  53  67 SE20      29.72S
SO SIOUX CITY  CLOUDY    63  53  70 E6        29.70F
TEKAMAH        CLOUDY    69  51  52 S25       29.74R THUNDER
COLUMBUS       PTCLDY    61  50  67 SE13      29.77F
ALBION         CLEAR     59  53  81 SE15      29.73R
OMAHA EPPLEY   TSTM      60  59  96 E10       29.83F
OFFUTT AFB     TSTM      60  58  92 SE9       29.83F
MILLARD        CLOUDY    60  58  92 E7        29.83F THUNDER
LINCOLN        MOCLDY    63  53  70 E15       29.82F
NEBRASKA CITY  CLOUDY    63  52  66 NE8       29.87S THUNDER
BEATRICE       CLOUDY    68  54  60 S10       29.78S
FALLS CITY     CLOUDY    65  53  65 S13       29.81F

...NORTHERN KANSAS...

CITY           SKY/WX    TMP DP  RH WIND       PRES   REMARKS
GOODLAND       CLOUDY    61  45  55 W14       29.84F
HILL CITY      CLOUDY    70  47  43 W12       29.77S
NORTON         SUNNY     59  45  58 SW8       29.75F
PHILLIPSBURG   CLEAR     70  52  52 SW5       29.74F
SMITH CENTER   CLEAR     66  50  55 S10       29.76F
BELOIT         CLEAR     66  52  59 SE8       29.76S
HAYS           CLOUDY    66  48  52 SW15      29.79F
RUSSELL        CLOUDY    68  52  56 S23G30    29.77F
CONCORDIA      PTCLDY    66  54  65 S20       29.77F
SALINA         MOCLDY    70  54  56 S21G28    29.80S
TOPEKA         MOCLDY    65  53  65 S5        29.86S



USA.gov is the U.S. government's official web portal to all federal, state and local government web resources and services.